Location: Deerlick Astronomy Village
(33.5614°N, 82.7631°W)
Time: 19:29:13
(UTC-05:00)

Envisat - Visible Passes

Search period start: 25 January 2020 00:00
Search period end: 04 February 2020 00:00
Orbit: 764 x 766 km, 98.1° (Epoch: 25 January)

Date Brightness Start Highest point End Pass type
(mag) Time Alt. Az. Time Alt. Az. Time Alt. Az.
25 Jan 5.5 06:18:21 10° NE 06:22:29 25° E 06:26:35 10° SSE visible
25 Jan 4.8 19:07:21 10° SSW 19:11:56 35° W 19:16:33 10° NNW visible
26 Jan 3.1 18:30:02 10° SSE 18:35:06 85° WSW 18:40:12 10° NNW visible
27 Jan 4.3 06:43:11 10° NNE 06:48:04 46° E 06:52:55 10° S visible
27 Jan 5.8 19:34:03 10° SW 19:37:34 19° W 19:41:06 10° NW visible
28 Jan 5.9 06:07:32 10° NE 06:11:08 19° E 06:14:42 10° SE visible
28 Jan 4.2 18:55:47 10° S 19:00:36 45° W 19:05:28 10° NNW visible
29 Jan 3.0 18:18:47 10° SSE 18:23:49 75° ENE 18:28:54 10° N visible
30 Jan 4.8 06:32:06 10° NNE 06:36:45 35° E 06:41:22 10° SSE visible
30 Jan 5.4 19:22:08 10° SSW 19:26:12 24° W 19:30:17 10° NW visible
31 Jan 6.2 05:56:58 10° ENE 05:59:45 15° E 06:02:30 10° SE visible
31 Jan 3.7 18:44:19 10° S 18:49:18 59° W 18:54:19 10° NNW visible
01 Feb 3.5 06:57:13 10° NNE 07:02:17 67° E 07:07:19 10° S visible
01 Feb 6.3 19:49:39 10° WSW 19:51:53 13° W 19:54:07 10° WNW visible
02 Feb 5.3 06:21:06 10° NE 06:25:24 27° E 06:29:41 10° SSE visible
02 Feb 5.0 19:10:23 10° SSW 19:14:51 31° W 19:19:21 10° NW visible
03 Feb 6.5 05:47:05 10° ENE 05:48:21 11° E 05:49:37 10° ESE visible
03 Feb 3.2 18:32:56 10° S 18:38:00 77° WSW 18:43:05 10° NNW visible
